This is the latest recevied weather packets stored in our database for station/object KC3ULW-13. If no packets are shown the sender has not sent any weather packets the latest 10 day(s).
| Time | Temp. | Humidity | Pressure | Rain* | Wind** | Luminosity | Snow |
|---|---|---|---|---|---|---|---|
| 1777158476 | 13.33° C | 81% | 1014.1 hPa | 0 mm | - | 26 W/m² | - |
| 1777158171 | 13.33° C | 81% | 1014.1 hPa | 0 mm | - | 29 W/m² | - |
| 1777157867 | 13.33° C | 81% | 1014.2 hPa | 0 mm | - | 44 W/m² | - |
| 1777157563 | 13.33° C | 81% | 1014.2 hPa | 0 mm | - | 45 W/m² | - |
| 1777157260 | 13.33° C | 81% | 1014.3 hPa | 0 mm | - | 38 W/m² | - |
| 1777156960 | 13.33° C | 81% | 1014.2 hPa | 0 mm | - | 40 W/m² | - |
| 1777156655 | 13.33° C | 81% | 1014 hPa | 0 mm | - | 30 W/m² | - |
| 1777156352 | 13.89° C | 82% | 1014.3 hPa | 0 mm | - | 47 W/m² | - |
| 1777156048 | 13.33° C | 82% | 1014.3 hPa | 0 mm | - | 47 W/m² | - |
| 1777155744 | 13.89° C | 81% | 1014 hPa | 0 mm | - | 23 W/m² | - |
| 1777155440 | 13.89° C | 81% | 1014.1 hPa | 0 mm | - | 40 W/m² | - |
| 1777155137 | 13.89° C | 81% | 1014.1 hPa | 0 mm | - | 36 W/m² | - |
| 1777154834 | 14.44° C | 81% | 1013.9 hPa | 0 mm | - | 38 W/m² | - |
| 1777154531 | 14.44° C | 80% | 1013.7 hPa | 0 mm | - | 47 W/m² | - |
| 1777154226 | 14.44° C | 80% | 1013.5 hPa | 0 mm | - | 73 W/m² | - |
| 1777153923 | 14.44° C | 80% | 1013.6 hPa | 0 mm | - | 65 W/m² | - |
| 1777153619 | 14.44° C | 81% | 1013.3 hPa | 0 mm | - | 79 W/m² | - |
| 1777153314 | 14.44° C | 81% | 1013.1 hPa | 0 mm | - | 62 W/m² | - |
| 1777153011 | 15° C | 81% | 1013 hPa | 0 mm | - | 41 W/m² | - |
| 1777152708 | 15° C | 80% | 1013.1 hPa | 0 mm | - | 75 W/m² | - |
| 1777152404 | 15° C | 81% | 1013 hPa | 0 mm | - | 109 W/m² | - |
| 1777152101 | 15° C | 81% | 1013 hPa | 0 mm | - | 78 W/m² | - |
| 1777151796 | 15° C | 81% | 1012.9 hPa | 0 mm | - | 58 W/m² | - |
| 1777151493 | 15° C | 81% | 1013.2 hPa | 0 mm | - | 55 W/m² | - |
| 1777151188 | 15° C | 81% | 1012.8 hPa | 0 mm | - | 72 W/m² | - |
* Rain latest hour (hover to see other rain measurements)
** Current wind speed in m/s (hover to see current wind gust speed)